| time (UTC) | temp C | wind direction | speed KPH | gust KPH | rain 1hr cm | rain 24hr cm | rain mn cm | humidity % | barometer mb |
| 20260509000508 | 16 | 257 | 1.6 | 3.2 | 0.00 | 0.00 | 0.00 | 43 | 1008.0 |
| 20260509000003 | 16 | 229 | 0.0 | 8.0 | 0.00 | 0.00 | 0.00 | 41 | 1007.9 |
| 20260508235502 | 16 | 233 | 3.2 | 4.8 | 0.00 | 0.00 | 0.00 | 41 | 1008.0 |
| 20260508234957 | 16 | 224 | 3.2 | 11.3 | 0.00 | 0.00 | 0.00 | 40 | 1007.9 |
| 20260508234455 | 16 | 236 | 0.0 | 0.0 | 0.00 | 0.00 | 0.00 | 40 | 1008.0 |
| 20260508233952 | 16 | 252 | 4.8 | 24.1 | 0.00 | 0.00 | 0.00 | 41 | 1007.8 |
| 20260508233452 | 17 | 307 | 4.8 | 8.0 | 0.00 | 0.00 | 0.00 | 39 | 1007.8 |
| 20260508232948 | 17 | 228 | 3.2 | 11.3 | 0.00 | 0.00 | 0.00 | 39 | 1007.8 |
| 20260508232445 | 17 | 179 | 1.6 | 8.0 | 0.00 | 0.00 | 0.00 | 39 | 1008.0 |
| 20260508231942 | 17 | 295 | 11.3 | 16.1 | 0.00 | 0.00 | 0.00 | 39 | 1007.7 |
| 20260508231439 | 17 | 242 | 6.4 | 11.3 | 0.00 | 0.00 | 0.00 | 38 | 1007.8 |
| 20260508230936 | 17 | 232 | 1.6 | 8.0 | 0.00 | 0.00 | 0.00 | 37 | 1008.0 |
| 20260508230432 | 17 | 227 | 11.3 | 27.4 | 0.00 | 0.00 | 0.00 | 37 | 1007.8 |
| 20260508225929 | 17 | 265 | 11.3 | 22.5 | 0.00 | 0.00 | 0.00 | 37 | 1007.9 |
| 20260508225426 | 18 | 258 | 8.0 | 11.3 | 0.00 | 0.00 | 0.00 | 37 | 1007.8 |
| 20260508224924 | 18 | 230 | 0.0 | 11.3 | 0.00 | 0.00 | 0.00 | 37 | 1007.9 |
| 20260508224422 | 17 | 348 | 6.4 | 22.5 | 0.00 | 0.00 | 0.00 | 37 | 1008.0 |
| 20260508223919 | 18 | 300 | 9.7 | 22.5 | 0.00 | 0.00 | 0.00 | 37 | 1007.9 |
| 20260508223417 | 18 | 246 | 4.8 | 4.8 | 0.00 | 0.00 | 0.00 | 37 | 1008.0 |
| 20260508222914 | 17 | 287 | 14.5 | 22.5 | 0.00 | 0.00 | 0.00 | 36 | 1008.0 |
| 20260508222411 | 17 | 244 | 4.8 | 30.6 | 0.00 | 0.00 | 0.00 | 38 | 1008.0 |
| 20260508221907 | 17 | 267 | 8.0 | 19.3 | 0.00 | 0.00 | 0.00 | 39 | 1008.1 |
| 20260508221403 | 17 | 228 | 0.0 | 11.3 | 0.00 | 0.00 | 0.00 | 38 | 1007.9 |
| 20260508220859 | 17 | 239 | 3.2 | 16.1 | 0.00 | 0.00 | 0.00 | 39 | 1008.0 |
| 20260508220356 | 17 | 218 | 3.2 | 8.0 | 0.00 | 0.00 | 0.00 | 38 | 1008.2 |
| 20260508215852 | 17 | 275 | 4.8 | 16.1 | 0.00 | 0.00 | 0.00 | 39 | 1008.4 |
| 20260508215349 | 17 | 239 | 11.3 | 19.3 | 0.00 | 0.00 | 0.00 | 37 | 1008.3 |
| 20260508214846 | 17 | 214 | 4.8 | 14.5 | 0.00 | 0.00 | 0.00 | 38 | 1008.1 |
| 20260508214344 | 17 | 242 | 8.0 | 19.3 | 0.00 | 0.00 | 0.00 | 38 | 1008.5 |
| 20260508213840 | 17 | 243 | 9.7 | 16.1 | 0.00 | 0.00 | 0.00 | 36 | 1008.3 |
| 20260508213337 | 18 | 343 | 16.1 | 22.5 | 0.00 | 0.00 | 0.00 | 36 | 1008.4 |
| 20260508212832 | 17 | 314 | 22.5 | 33.8 | 0.00 | 0.00 | 0.00 | 36 | 1008.2 |
| 20260508212329 | 18 | 278 | 14.5 | 19.3 | 0.00 | 0.00 | 0.00 | 36 | 1008.5 |
| 20260508211825 | 17 | 262 | 4.8 | 16.1 | 0.00 | 0.00 | 0.00 | 36 | 1008.3 |
| 20260508211321 | 18 | 313 | 8.0 | 14.5 | 0.00 | 0.00 | 0.00 | 35 | 1008.4 |
| 20260508210819 | 17 | 213 | 9.7 | 19.3 | 0.00 | 0.00 | 0.00 | 37 | 1008.3 |
| 20260508210315 | 17 | 209 | 11.3 | 14.5 | 0.00 | 0.00 | 0.00 | 39 | 1008.5 |
| 20260508205812 | 17 | 193 | 8.0 | 8.0 | 0.00 | 0.00 | 0.00 | 38 | 1008.5 |
| 20260508205308 | 17 | 241 | 8.0 | 14.5 | 0.00 | 0.00 | 0.00 | 39 | 1008.5 |
| 20260508204805 | 17 | 275 | 4.8 | 16.1 | 0.00 | 0.00 | 0.00 | 38 | 1008.6 |
| 20260508204302 | 17 | 211 | 6.4 | 11.3 | 0.00 | 0.00 | 0.00 | 40 | 1008.6 |
| 20260508203758 | 17 | 236 | 6.4 | 33.8 | 0.00 | 0.00 | 0.00 | 39 | 1008.7 |
| 20260508203254 | 18 | 241 | 4.8 | 14.5 | 0.00 | 0.00 | 0.00 | 38 | 1008.7 |
| 20260508202750 | 16 | 242 | 3.2 | 19.3 | 0.00 | 0.00 | 0.00 | 37 | 1008.7 |
| 20260508202247 | 16 | 267 | 4.8 | 16.1 | 0.00 | 0.00 | 0.00 | 39 | 1009.1 |
| 20260508201744 | 17 | 266 | 1.6 | 19.3 | 0.00 | 0.00 | 0.00 | 39 | 1009.0 |
| 20260508201241 | 17 | 146 | 17.7 | 22.5 | 0.00 | 0.00 | 0.00 | 38 | 1009.0 |
| 20260508200738 | 17 | 286 | 11.3 | 22.5 | 0.00 | 0.00 | 0.00 | 38 | 1009.0 |
| 20260508200234 | 17 | 259 | 9.7 | 14.5 | 0.00 | 0.00 | 0.00 | 36 | 1009.3 |
| 20260508195730 | 17 | 278 | 14.5 | 24.1 | 0.00 | 0.00 | 0.00 | 36 | 1009.5 |
| 20260508195227 | 17 | 227 | 9.7 | 19.3 | 0.00 | 0.00 | 0.00 | 35 | 1009.3 |
| 20260508194724 | 17 | 215 | 14.5 | 27.4 | 0.00 | 0.00 | 0.00 | 35 | 1009.8 |
| 20260508194220 | 17 | 321 | 16.1 | 19.3 | 0.00 | 0.00 | 0.00 | 36 | 1009.7 |
| 20260508193717 | 16 | 245 | 1.6 | 14.5 | 0.00 | 0.00 | 0.00 | 38 | 1009.8 |
| 20260508193214 | 17 | 231 | 8.0 | 19.3 | 0.00 | 0.00 | 0.00 | 37 | 1009.8 |
| 20260508192710 | 16 | 205 | 9.7 | 27.4 | 0.00 | 0.00 | 0.00 | 36 | 1009.8 |
| 20260508192208 | 17 | 273 | 9.7 | 19.3 | 0.00 | 0.00 | 0.00 | 35 | 1010.2 |
| 20260508191705 | 16 | 328 | 17.7 | 24.1 | 0.00 | 0.00 | 0.00 | 37 | 1009.5 |
| 20260508191201 | 16 | 256 | 9.7 | 33.8 | 0.00 | 0.00 | 0.00 | 36 | 1010.1 |
| 20260508190659 | 16 | 256 | 9.7 | 14.5 | 0.00 | 0.00 | 0.00 | 36 | 1010.2 |
| 20260508190155 | 16 | 234 | 3.2 | 16.1 | 0.00 | 0.00 | 0.00 | 37 | 1010.5 |
| 20260508185652 | 16 | 304 | 16.1 | 24.1 | 0.00 | 0.00 | 0.00 | 36 | 1010.3 |
| 20260508185149 | 16 | 250 | 9.7 | 24.1 | 0.00 | 0.00 | 0.00 | 38 | 1010.4 |
| 20260508184646 | 16 | 205 | 8.0 | 22.5 | 0.00 | 0.00 | 0.00 | 36 | 1010.1 |
| 20260508184144 | 16 | 242 | 14.5 | 27.4 | 0.00 | 0.00 | 0.00 | 37 | 1010.5 |
| 20260508183640 | 16 | 216 | 14.5 | 22.5 | 0.00 | 0.00 | 0.00 | 35 | 1010.3 |
| 20260508183136 | 16 | 239 | 6.4 | 19.3 | 0.00 | 0.00 | 0.00 | 36 | 1010.6 |
| 20260508182632 | 15 | 173 | 6.4 | 8.0 | 0.00 | 0.00 | 0.00 | 38 | 1010.6 |
| 20260508182129 | 16 | 269 | 14.5 | 24.1 | 0.00 | 0.00 | 0.00 | 37 | 1010.8 |
| 20260508181624 | 16 | 208 | 8.0 | 22.5 | 0.00 | 0.00 | 0.00 | 39 | 1010.8 |
| 20260508181122 | 15 | 191 | 14.5 | 24.1 | 0.00 | 0.00 | 0.00 | 38 | 1010.8 |
| 20260508180619 | 15 | 297 | 24.1 | 43.5 | 0.00 | 0.00 | 0.00 | 39 | 1010.8 |
| 20260508180115 | 16 | 230 | 3.2 | 14.5 | 0.00 | 0.00 | 0.00 | 41 | 1010.9 |
| 20260508175612 | 15 | 222 | 4.8 | 14.5 | 0.00 | 0.00 | 0.00 | 39 | 1010.9 |
| 20260508175109 | 15 | 229 | 3.2 | 19.3 | 0.00 | 0.00 | 0.00 | 38 | 1011.0 |
| 20260508174607 | 15 | 316 | 11.3 | 22.5 | 0.00 | 0.00 | 0.00 | 38 | 1011.2 |
| 20260508174103 | 15 | 207 | 4.8 | 16.1 | 0.00 | 0.00 | 0.00 | 38 | 1011.4 |
| 20260508173601 | 15 | 196 | 4.8 | 30.6 | 0.00 | 0.00 | 0.00 | 39 | 1011.5 |
| 20260508173056 | 14 | 78 | 3.2 | 14.5 | 0.00 | 0.00 | 0.00 | 42 | 1011.6 |
| 20260508172554 | 15 | 204 | 19.3 | 38.6 | 0.00 | 0.00 | 0.00 | 38 | 1011.7 |
| 20260508172050 | 15 | 256 | 11.3 | 30.6 | 0.00 | 0.00 | 0.00 | 41 | 1011.7 |
| 20260508171547 | 14 | 202 | 4.8 | 11.3 | 0.00 | 0.00 | 0.00 | 41 | 1011.5 |
| 20260508171043 | 15 | 291 | 8.0 | 33.8 | 0.00 | 0.00 | 0.00 | 39 | 1011.7 |
| 20260508170541 | 15 | 247 | 8.0 | 19.3 | 0.00 | 0.00 | 0.00 | 39 | 1011.9 |
| 20260508170038 | 14 | 324 | 17.7 | 22.5 | 0.00 | 0.00 | 0.00 | 39 | 1011.9 |
| 20260508165535 | 14 | 149 | 9.7 | 14.5 | 0.00 | 0.00 | 0.00 | 39 | 1011.9 |
| 20260508165032 | 15 | 230 | 24.1 | 27.4 | 0.00 | 0.00 | 0.00 | 39 | 1011.8 |
| 20260508164528 | 14 | 219 | 9.7 | 11.3 | 0.00 | 0.00 | 0.00 | 41 | 1012.1 |
| 20260508164025 | 13 | 207 | 4.8 | 16.1 | 0.00 | 0.00 | 0.00 | 42 | 1012.2 |
| 20260508163522 | 14 | 225 | 11.3 | 19.3 | 0.00 | 0.00 | 0.00 | 42 | 1012.4 |
| 20260508163019 | 13 | 319 | 3.2 | 14.5 | 0.00 | 0.00 | 0.00 | 42 | 1012.1 |
| 20260508162516 | 13 | 312 | 8.0 | 16.1 | 0.00 | 0.00 | 0.00 | 43 | 1012.4 |
| 20260508162013 | 13 | 343 | 17.7 | 22.5 | 0.00 | 0.00 | 0.00 | 46 | 1012.4 |
| 20260508161510 | 13 | 265 | 3.2 | 11.3 | 0.00 | 0.00 | 0.00 | 46 | 1012.6 |
| 20260508161007 | 14 | 245 | 6.4 | 14.5 | 0.00 | 0.00 | 0.00 | 45 | 1012.5 |
| 20260508160506 | 13 | 254 | 9.7 | 14.5 | 0.00 | 0.00 | 0.00 | 49 | 1012.6 |
| 20260508160002 | 13 | 263 | 9.7 | 14.5 | 0.00 | 0.00 | 0.00 | 50 | 1012.7 |
| 20260508155459 | 13 | 288 | 11.3 | 14.5 | 0.00 | 0.00 | 0.00 | 48 | 1012.6 |
| 20260508154955 | 13 | 230 | 0.0 | 19.3 | 0.00 | 0.00 | 0.00 | 49 | 1012.8 |
| 20260508154453 | 13 | 229 | 3.2 | 22.5 | 0.00 | 0.00 | 0.00 | 50 | 1012.7 |
| 20260508153950 | 13 | 288 | 3.2 | 11.3 | 0.00 | 0.00 | 0.00 | 47 | 1012.8 |
| 20260508153447 | 13 | 228 | 4.8 | 14.5 | 0.00 | 0.00 | 0.00 | 48 | 1012.7 |
| 20260508152943 | 13 | 236 | 8.0 | 8.0 | 0.00 | 0.00 | 0.00 | 48 | 1012.8 |
| 20260508152440 | 12 | 320 | 9.7 | 19.3 | 0.00 | 0.00 | 0.00 | 49 | 1012.8 |
| 20260508151936 | 12 | 242 | 8.0 | 19.3 | 0.00 | 0.00 | 0.00 | 51 | 1013.0 |
| 20260508151433 | 13 | 189 | 4.8 | 11.3 | 0.00 | 0.00 | 0.00 | 52 | 1012.8 |
| 20260508150929 | 13 | 232 | 0.0 | 24.1 | 0.00 | 0.00 | 0.00 | 50 | 1013.0 |
| 20260508150426 | 13 | 184 | 6.4 | 16.1 | 0.00 | 0.00 | 0.00 | 53 | 1013.1 |
| 20260508145922 | 12 | 257 | 4.8 | 11.3 | 0.00 | 0.00 | 0.00 | 56 | 1012.8 |
| 20260508145419 | 12 | 228 | 8.0 | 19.3 | 0.00 | 0.00 | 0.00 | 55 | 1013.1 |
| 20260508144915 | 12 | 235 | 4.8 | 11.3 | 0.00 | 0.00 | 0.00 | 55 | 1013.2 |
| 20260508144413 | 12 | 208 | 6.4 | 8.0 | 0.00 | 0.00 | 0.00 | 57 | 1013.2 |
| 20260508143910 | 12 | 86 | 8.0 | 11.3 | 0.00 | 0.00 | 0.00 | 58 | 1013.4 |
| 20260508143408 | 11 | 226 | 0.0 | 3.2 | 0.00 | 0.00 | 0.00 | 57 | 1013.2 |
| 20260508142904 | 11 | 284 | 1.6 | 3.2 | 0.00 | 0.00 | 0.00 | 58 | 1013.2 |
| 20260508142401 | 12 | 209 | 4.8 | 4.8 | 0.00 | 0.00 | 0.00 | 58 | 1013.3 |
| 20260508141857 | 11 | 200 | 4.8 | 4.8 | 0.00 | 0.00 | 0.00 | 58 | 1013.4 |
| 20260508141354 | 10 | 225 | 0.0 | 11.3 | 0.00 | 0.00 | 0.00 | 60 | 1013.2 |
| 20260508140852 | 11 | 259 | 12.9 | 14.5 | 0.00 | 0.00 | 0.00 | 61 | 1013.2 |
| 20260508140349 | 11 | 233 | 4.8 | 11.3 | 0.00 | 0.00 | 0.00 | 65 | 1013.5 |
| 20260508135844 | 10 | 216 | 3.2 | 8.0 | 0.00 | 0.00 | 0.00 | 69 | 1013.4 |
| 20260508135341 | 11 | 220 | 1.6 | 11.3 | 0.00 | 0.00 | 0.00 | 69 | 1013.5 |
| 20260508134837 | 11 | 200 | 1.6 | 4.8 | 0.00 | 0.00 | 0.00 | 71 | 1013.4 |
| 20260508134334 | 10 | 176 | 4.8 | 4.8 | 0.00 | 0.00 | 0.00 | 70 | 1013.4 |
| 20260508133831 | 10 | 198 | 3.2 | 4.8 | 0.00 | 0.00 | 0.00 | 75 | 1013.7 |
| 20260508133329 | 10 | 237 | 4.8 | 11.3 | 0.00 | 0.00 | 0.00 | 75 | 1013.7 |
| 20260508132826 | 10 | 217 | 3.2 | 8.0 | 0.00 | 0.00 | 0.00 | 76 | 1013.6 |
| 20260508132323 | 9 | 136 | 6.4 | 11.3 | 0.00 | 0.00 | 0.00 | 76 | 1013.5 |
| 20260508131820 | 9 | 200 | 3.2 | 3.2 | 0.00 | 0.00 | 0.00 | 78 | 1013.7 |
| 20260508131315 | 8 | 214 | 0.0 | 3.2 | 0.00 | 0.00 | 0.00 | 81 | 1013.6 |
| 20260508130812 | 8 | 212 | 4.8 | 8.0 | 0.00 | 0.00 | 0.00 | 81 | 1013.7 |
| 20260508130309 | 9 | 211 | 4.8 | 8.0 | 0.00 | 0.00 | 0.00 | 80 | 1013.6 |
| 20260508125805 | 8 | 178 | 4.8 | 4.8 | 0.00 | 0.00 | 0.00 | 78 | 1013.8 |
| 20260508125305 | 8 | 158 | 0.0 | 3.2 | 0.00 | 0.00 | 0.00 | 80 | 1013.5 |
| 20260508124800 | 8 | 219 | 0.0 | 3.2 | 0.00 | 0.00 | 0.00 | 82 | 1013.6 |
| 20260508124256 | 8 | 200 | 4.8 | 8.0 | 0.00 | 0.00 | 0.00 | 81 | 1013.5 |
| 20260508123755 | 7 | 223 | 0.0 | 3.2 | 0.00 | 0.00 | 0.00 | 83 | 1013.5 |
| 20260508123252 | 6 | 207 | 1.6 | 3.2 | 0.00 | 0.00 | 0.00 | 87 | 1013.4 |
| 20260508122748 | 6 | 186 | 0.0 | 8.0 | 0.00 | 0.00 | 0.00 | 90 | 1013.3 |
| 20260508122245 | 6 | 212 | 1.6 | 4.8 | 0.00 | 0.00 | 0.00 | 94 | 1013.3 |
| 20260508121743 | 5 | 229 | 0.0 | 3.2 | 0.00 | 0.00 | 0.00 | 96 | 1013.6 |
| 20260508121242 | 5 | 190 | 3.2 | 4.8 | 0.00 | 0.00 | 0.00 | 97 | 1013.2 |
| 20260508120738 | 5 | 185 | 3.2 | 4.8 | 0.00 | 0.00 | 0.00 | 97 | 1013.3 |
| 20260508120237 | 6 | 206 | 0.0 | 0.0 | 0.00 | 0.00 | 0.00 | 98 | 1013.2 |
| 20260508115734 | 5 | 215 | 0.0 | 0.0 | 0.00 | 0.00 | 0.00 | 98 | 1013.0 |
| 20260508115231 | 5 | 227 | 0.0 | 0.0 | 0.00 | 0.00 | 0.00 | 97 | 1013.2 |
| 20260508114727 | 4 | 231 | 0.0 | 0.0 | 0.00 | 0.00 | 0.00 | 97 | 1013.1 |
| 20260508114224 | 4 | 226 | 0.0 | 0.0 | 0.00 | 0.00 | 0.00 | 97 | 1013.1 |
| 20260508113721 | 3 | 226 | 0.0 | 0.0 | 0.00 | 0.00 | 0.00 | 97 | 1012.6 |
| 20260508113219 | 3 | 226 | 0.0 | 0.0 | 0.00 | 0.00 | 0.00 | 97 | 1012.7 |
| 20260508112715 | 3 | 226 | 0.0 | 0.0 | 0.00 | 0.00 | 0.00 | 97 | 1012.7 |
| 20260508112212 | 3 | 226 | 0.0 | 0.0 | 0.00 | 0.00 | 0.00 | 97 | 1012.6 |
| 20260508111709 | 2 | 223 | 0.0 | 0.0 | 0.00 | 0.00 | 0.00 | 97 | 1012.8 |
| 20260508111206 | 2 | 223 | 0.0 | 0.0 | 0.00 | 0.00 | 0.00 | 97 | 1012.6 |
| 20260508110704 | 2 | 222 | 0.0 | 0.0 | 0.00 | 0.00 | 0.00 | 97 | 1012.5 |
| 20260508110200 | 2 | 222 | 0.0 | 0.0 | 0.00 | 0.00 | 0.00 | 97 | 1012.6 |
| 20260508105700 | 2 | 222 | 0.0 | 0.0 | 0.00 | 0.00 | 0.00 | 97 | 1012.7 |
| 20260508105157 | 2 | 220 | 0.0 | 0.0 | 0.00 | 0.00 | 0.00 | 97 | 1012.4 |
| 20260508104655 | 2 | 222 | 0.0 | 0.0 | 0.00 | 0.00 | 0.00 | 97 | 1012.4 |
| 20260508104152 | 2 | 225 | 0.0 | 0.0 | 0.00 | 0.00 | 0.00 | 97 | 1012.6 |
| 20260508103649 | 2 | 223 | 0.0 | 0.0 | 0.00 | 0.00 | 0.00 | 97 | 1012.7 |
| 20260508103146 | 2 | 226 | 0.0 | 0.0 | 0.00 | 0.00 | 0.00 | 97 | 1012.3 |
| 20260508102643 | 2 | 226 | 0.0 | 0.0 | 0.00 | 0.00 | 0.00 | 97 | 1012.2 |
| 20260508102141 | 2 | 227 | 0.0 | 0.0 | 0.00 | 0.00 | 0.00 | 97 | 1012.7 |
| 20260508101638 | 2 | 228 | 0.0 | 0.0 | 0.00 | 0.00 | 0.00 | 97 | 1012.4 |
| 20260508101135 | 2 | 225 | 0.0 | 0.0 | 0.00 | 0.00 | 0.00 | 97 | 1012.6 |
| 20260508100633 | 2 | 226 | 0.0 | 0.0 | 0.00 | 0.00 | 0.00 | 97 | 1012.5 |
| 20260508100131 | 2 | 226 | 0.0 | 0.0 | 0.00 | 0.00 | 0.00 | 97 | 1012.5 |
| 20260508095627 | 2 | 222 | 0.0 | 0.0 | 0.00 | 0.00 | 0.00 | 97 | 1012.6 |
| 20260508095124 | 2 | 223 | 0.0 | 0.0 | 0.00 | 0.00 | 0.00 | 97 | 1012.6 |
| 20260508094621 | 2 | 220 | 0.0 | 0.0 | 0.00 | 0.00 | 0.00 | 97 | 1012.6 |
| 20260508094118 | 2 | 211 | 0.0 | 0.0 | 0.00 | 0.00 | 0.00 | 97 | 1012.3 |
| 20260508093615 | 2 | 221 | 0.0 | 0.0 | 0.00 | 0.00 | 0.00 | 97 | 1012.3 |
| 20260508093113 | 2 | 226 | 0.0 | 0.0 | 0.00 | 0.00 | 0.00 | 97 | 1012.5 |
| 20260508092609 | 2 | 222 | 0.0 | 0.0 | 0.00 | 0.00 | 0.00 | 97 | 1012.8 |
| 20260508092108 | 2 | 219 | 0.0 | 0.0 | 0.00 | 0.00 | 0.00 | 97 | 1012.5 |
| 20260508091605 | 3 | 218 | 0.0 | 0.0 | 0.00 | 0.00 | 0.00 | 97 | 1012.7 |
| 20260508091102 | 2 | 226 | 0.0 | 0.0 | 0.00 | 0.00 | 0.00 | 97 | 1012.5 |
| 20260508090600 | 3 | 227 | 0.0 | 0.0 | 0.00 | 0.00 | 0.00 | 97 | 1012.5 |
| 20260508090056 | 3 | 226 | 0.0 | 0.0 | 0.00 | 0.00 | 0.00 | 97 | 1012.5 |
| 20260508085553 | 3 | 222 | 0.0 | 0.0 | 0.00 | 0.00 | 0.00 | 97 | 1012.5 |
| 20260508085050 | 3 | 222 | 0.0 | 0.0 | 0.00 | 0.00 | 0.00 | 97 | 1012.7 |
| 20260508084547 | 3 | 222 | 0.0 | 3.2 | 0.00 | 0.00 | 0.00 | 97 | 1012.8 |
| 20260508084044 | 3 | 226 | 0.0 | 0.0 | 0.00 | 0.00 | 0.00 | 97 | 1012.3 |
| 20260508083541 | 3 | 226 | 0.0 | 0.0 | 0.00 | 0.00 | 0.00 | 97 | 1012.5 |
| 20260508083038 | 3 | 226 | 0.0 | 0.0 | 0.00 | 0.00 | 0.00 | 97 | 1012.5 |
| 20260508082534 | 3 | 226 | 0.0 | 0.0 | 0.00 | 0.00 | 0.00 | 97 | 1012.6 |
| 20260508082031 | 3 | 225 | 0.0 | 0.0 | 0.00 | 0.00 | 0.00 | 97 | 1012.5 |
| 20260508081529 | 3 | 226 | 0.0 | 0.0 | 0.00 | 0.00 | 0.00 | 97 | 1012.3 |
| 20260508081024 | 3 | 226 | 0.0 | 0.0 | 0.00 | 0.00 | 0.00 | 97 | 1012.4 |
| 20260508080523 | 3 | 225 | 0.0 | 0.0 | 0.00 | 0.00 | 0.00 | 97 | 1012.6 |
| 20260508080020 | 3 | 229 | 0.0 | 0.0 | 0.00 | 0.00 | 0.00 | 97 | 1013.0 |
| 20260508075516 | 3 | 229 | 0.0 | 0.0 | 0.00 | 0.00 | 0.00 | 97 | 1012.6 |
| 20260508075014 | 3 | 229 | 0.0 | 0.0 | 0.00 | 0.00 | 0.00 | 97 | 1013.0 |
| 20260508074512 | 3 | 231 | 0.0 | 0.0 | 0.00 | 0.00 | 0.00 | 97 | 1013.0 |
| 20260508074008 | 3 | 224 | 0.0 | 0.0 | 0.00 | 0.00 | 0.00 | 97 | 1012.8 |
| 20260508073505 | 3 | 224 | 0.0 | 0.0 | 0.00 | 0.00 | 0.00 | 97 | 1012.6 |
| 20260508073003 | 3 | 229 | 0.0 | 0.0 | 0.00 | 0.00 | 0.00 | 97 | 1012.7 |
| 20260508072458 | 3 | 231 | 0.0 | 0.0 | 0.00 | 0.00 | 0.00 | 97 | 1012.8 |
| 20260508071956 | 4 | 232 | 1.6 | 3.2 | 0.00 | 0.00 | 0.00 | 97 | 1012.7 |
| 20260508071454 | 4 | 226 | 1.6 | 3.2 | 0.00 | 0.00 | 0.00 | 97 | 1012.7 |
| 20260508070951 | 4 | 226 | 0.0 | 0.0 | 0.00 | 0.00 | 0.00 | 97 | 1012.6 |
| 20260508070449 | 4 | 231 | 0.0 | 0.0 | 0.00 | 0.00 | 0.00 | 97 | 1012.7 |
| 20260508065947 | 4 | 228 | 0.0 | 0.0 | 0.00 | 0.00 | 0.00 | 97 | 1012.8 |
| 20260508065444 | 4 | 226 | 0.0 | 0.0 | 0.00 | 0.00 | 0.00 | 97 | 1012.7 |
| 20260508064942 | 4 | 227 | 0.0 | 0.0 | 0.00 | 0.00 | 0.00 | 97 | 1013.2 |
| 20260508064439 | 4 | 225 | 0.0 | 0.0 | 0.00 | 0.00 | 0.00 | 97 | 1012.8 |
| 20260508063937 | 4 | 226 | 0.0 | 0.0 | 0.00 | 0.00 | 0.00 | 97 | 1013.2 |
| 20260508063434 | 4 | 226 | 0.0 | 0.0 | 0.00 | 0.00 | 0.00 | 97 | 1013.0 |
| 20260508062932 | 4 | 226 | 0.0 | 0.0 | 0.00 | 0.00 | 0.00 | 97 | 1012.8 |
| 20260508062429 | 4 | 227 | 0.0 | 0.0 | 0.00 | 0.00 | 0.00 | 97 | 1012.8 |
| 20260508061926 | 4 | 218 | 0.0 | 0.0 | 0.00 | 0.00 | 0.00 | 97 | 1013.0 |
| 20260508061424 | 4 | 224 | 0.0 | 0.0 | 0.00 | 0.00 | 0.00 | 97 | 1013.0 |
| 20260508060920 | 4 | 227 | 0.0 | 0.0 | 0.00 | 0.00 | 0.00 | 97 | 1013.0 |
| 20260508060418 | 4 | 228 | 0.0 | 0.0 | 0.00 | 0.00 | 0.00 | 97 | 1013.1 |
| 20260508055913 | 4 | 227 | 0.0 | 0.0 | 0.00 | 0.00 | 0.00 | 97 | 1013.1 |
| 20260508055410 | 5 | 228 | 0.0 | 0.0 | 0.00 | 0.00 | 0.00 | 97 | 1013.2 |
| 20260508054906 | 5 | 228 | 0.0 | 0.0 | 0.00 | 0.00 | 0.00 | 97 | 1013.1 |
| 20260508054404 | 5 | 235 | 0.0 | 3.2 | 0.00 | 0.00 | 0.00 | 97 | 1013.0 |
| 20260508053901 | 5 | 231 | 0.0 | 0.0 | 0.00 | 0.00 | 0.00 | 97 | 1013.1 |
| 20260508053358 | 5 | 227 | 0.0 | 0.0 | 0.00 | 0.00 | 0.00 | 97 | 1013.1 |
| 20260508052855 | 5 | 231 | 0.0 | 0.0 | 0.00 | 0.00 | 0.00 | 97 | 1013.0 |
| 20260508052353 | 5 | 230 | 0.0 | 0.0 | 0.00 | 0.00 | 0.00 | 97 | 1013.2 |
| 20260508051849 | 5 | 229 | 0.0 | 0.0 | 0.00 | 0.00 | 0.00 | 97 | 1013.2 |
| 20260508051345 | 5 | 224 | 0.0 | 0.0 | 0.00 | 0.00 | 0.00 | 96 | 1013.2 |
| 20260508050841 | 5 | 228 | 0.0 | 0.0 | 0.00 | 0.00 | 0.00 | 96 | 1013.3 |
| 20260508050338 | 5 | 239 | 3.2 | 3.2 | 0.00 | 0.00 | 0.00 | 96 | 1013.0 |
| 20260508045834 | 5 | 224 | 0.0 | 0.0 | 0.00 | 0.00 | 0.00 | 96 | 1013.1 |
| 20260508045332 | 5 | 231 | 1.6 | 3.2 | 0.00 | 0.00 | 0.00 | 96 | 1013.2 |
| 20260508044829 | 5 | 231 | 0.0 | 0.0 | 0.00 | 0.00 | 0.00 | 95 | 1013.1 |
| 20260508044325 | 5 | 226 | 0.0 | 0.0 | 0.00 | 0.00 | 0.00 | 95 | 1013.2 |
| 20260508043821 | 5 | 218 | 0.0 | 0.0 | 0.00 | 0.00 | 0.00 | 95 | 1013.1 |
| 20260508043319 | 5 | 225 | 0.0 | 0.0 | 0.00 | 0.00 | 0.00 | 95 | 1013.3 |
| 20260508042815 | 5 | 231 | 0.0 | 0.0 | 0.00 | 0.00 | 0.00 | 95 | 1013.2 |
| 20260508042313 | 5 | 218 | 0.0 | 0.0 | 0.00 | 0.00 | 0.00 | 95 | 1013.3 |
| 20260508041810 | 5 | 227 | 0.0 | 0.0 | 0.00 | 0.00 | 0.00 | 94 | 1013.3 |
| 20260508041306 | 5 | 231 | 3.2 | 3.2 | 0.00 | 0.00 | 0.00 | 93 | 1013.0 |
| 20260508040802 | 6 | 234 | 3.2 | 4.8 | 0.00 | 0.00 | 0.00 | 93 | 1013.2 |
| 20260508040301 | 6 | 222 | 0.0 | 3.2 | 0.13 | 0.00 | 0.00 | 92 | 1013.0 |
| 20260508035757 | 6 | 202 | 3.2 | 3.2 | 0.13 | 0.08 | 0.08 | 90 | 1013.2 |
| 20260508035255 | 6 | 170 | 4.8 | 4.8 | 0.13 | 0.05 | 0.05 | 89 | 1013.5 |
| 20260508034751 | 6 | 220 | 0.0 | 3.2 | 0.23 | 0.05 | 0.05 | 87 | 1013.6 |
| 20260508034248 | 7 | 232 | 3.2 | 4.8 | 0.23 | 0.05 | 0.05 | 81 | 1013.5 |
| 20260508033746 | 7 | 243 | 4.8 | 14.5 | 0.00 | 0.00 | 0.00 | 72 | 1013.6 |
| 20260508033244 | 7 | 233 | 8.0 | 14.5 | 0.00 | 0.00 | 0.00 | 72 | 1013.6 |
| 20260508032741 | 7 | 236 | 3.2 | 3.2 | 0.00 | 0.00 | 0.00 | 69 | 1013.4 |
| 20260508032238 | 7 | 232 | 3.2 | 3.2 | 0.00 | 0.00 | 0.00 | 67 | 1013.3 |
| 20260508031735 | 7 | 231 | 4.8 | 4.8 | 0.00 | 0.00 | 0.00 | 66 | 1012.8 |
| 20260508031231 | 7 | 228 | 0.0 | 0.0 | 0.00 | 0.00 | 0.00 | 65 | 1012.7 |
| 20260508030727 | 7 | 226 | 0.0 | 0.0 | 0.00 | 0.00 | 0.00 | 65 | 1012.7 |
| 20260508030225 | 7 | 226 | 0.0 | 0.0 | 0.00 | 0.00 | 0.00 | 66 | 1012.8 |
| 20260508025721 | 7 | 226 | 0.0 | 0.0 | 0.00 | 0.00 | 0.00 | 66 | 1013.1 |
| 20260508025219 | 8 | 215 | 3.2 | 4.8 | 0.00 | 0.00 | 0.00 | 67 | 1013.2 |
| 20260508024714 | 8 | 224 | 0.0 | 0.0 | 0.00 | 0.00 | 0.00 | 65 | 1013.1 |
| 20260508024212 | 8 | 229 | 0.0 | 0.0 | 0.00 | 0.00 | 0.00 | 62 | 1013.1 |
| 20260508023708 | 8 | 231 | 0.0 | 0.0 | 0.00 | 0.00 | 0.00 | 64 | 1013.2 |
| 20260508023206 | 8 | 223 | 1.6 | 4.8 | 0.00 | 0.00 | 0.00 | 61 | 1013.1 |
| 20260508022701 | 8 | 221 | 0.0 | 3.2 | 0.00 | 0.00 | 0.00 | 61 | 1013.3 |
| 20260508022158 | 8 | 227 | 0.0 | 0.0 | 0.00 | 0.00 | 0.00 | 60 | 1013.2 |
| 20260508021654 | 8 | 239 | 8.0 | 11.3 | 0.00 | 0.00 | 0.00 | 59 | 1013.2 |
| 20260508021150 | 9 | 240 | 3.2 | 11.3 | 0.00 | 0.00 | 0.00 | 58 | 1013.2 |
| 20260508020648 | 9 | 239 | 3.2 | 4.8 | 0.00 | 0.00 | 0.00 | 59 | 1013.2 |
| 20260508020145 | 9 | 293 | 6.4 | 11.3 | 0.00 | 0.00 | 0.00 | 57 | 1013.2 |
| 20260508015643 | 8 | 279 | 6.4 | 8.0 | 0.00 | 0.00 | 0.00 | 61 | 1013.1 |
| 20260508015139 | 9 | 230 | 3.2 | 4.8 | 0.00 | 0.00 | 0.00 | 57 | 1013.0 |
| 20260508014636 | 9 | 226 | 0.0 | 3.2 | 0.00 | 0.00 | 0.00 | 60 | 1012.8 |
| 20260508014132 | 9 | 252 | 3.2 | 8.0 | 0.00 | 0.00 | 0.00 | 58 | 1012.8 |
| 20260508013628 | 9 | 228 | 0.0 | 3.2 | 0.00 | 0.00 | 0.00 | 58 | 1013.0 |
| 20260508013125 | 10 | 225 | 0.0 | 3.2 | 0.00 | 0.00 | 0.00 | 56 | 1012.8 |
| 20260508012623 | 10 | 229 | 0.0 | 0.0 | 0.00 | 0.00 | 0.00 | 56 | 1012.7 |
| 20260508012120 | 10 | 235 | 3.2 | 4.8 | 0.00 | 0.00 | 0.00 | 54 | 1012.8 |
| 20260508011618 | 10 | 233 | 0.0 | 3.2 | 0.00 | 0.00 | 0.00 | 57 | 1012.7 |
| 20260508011115 | 9 | 240 | 0.0 | 3.2 | 0.00 | 0.00 | 0.00 | 56 | 1012.6 |
| 20260508010612 | 9 | 230 | 1.6 | 3.2 | 0.00 | 0.00 | 0.00 | 57 | 1012.5 |
| 20260508010110 | 9 | 220 | 0.0 | 3.2 | 0.00 | 0.00 | 0.00 | 56 | 1012.3 |
| 20260508005606 | 10 | 228 | 0.0 | 3.2 | 0.00 | 0.00 | 0.00 | 55 | 1012.7 |
| 20260508005103 | 10 | 234 | 3.2 | 8.0 | 0.00 | 0.00 | 0.00 | 53 | 1012.6 |
| 20260508004559 | 10 | 230 | 0.0 | 4.8 | 0.00 | 0.00 | 0.00 | 53 | 1012.4 |
| 20260508004055 | 10 | 230 | 3.2 | 4.8 | 0.00 | 0.00 | 0.00 | 53 | 1012.5 |
| 20260508003552 | 10 | 212 | 4.8 | 4.8 | 0.00 | 0.00 | 0.00 | 52 | 1012.4 |
| 20260508003050 | 10 | 259 | 8.0 | 14.5 | 0.00 | 0.00 | 0.00 | 50 | 1012.3 |
| 20260508002546 | 10 | 227 | 6.4 | 14.5 | 0.00 | 0.00 | 0.00 | 50 | 1012.5 |
| 20260508002043 | 10 | 249 | 8.0 | 14.5 | 0.00 | 0.00 | 0.00 | 50 | 1012.6 |
| 20260508001538 | 10 | 293 | 9.7 | 11.3 | 0.00 | 0.00 | 0.00 | 49 | 1012.3 |
| 20260508001035 | 10 | 227 | 0.0 | 4.8 | 0.00 | 0.00 | 0.00 | 49 | 1012.2 |